Location: Eaton Estates
(41.3089°N, 82.0057°W)
Time: 09:18:36
(UTC+00:00)

NOAA 18 - Pass Details

Date: 05 April 2023
Orbit: 838 x 860 km, 98.9° (Epoch: 03 June)

Event Time Altitude Azimuth Distance (km) Brightness Sun altitude
Exits shadow 03:17:39 42° 356° (N) 1,205 6.2 -33.8°
Drops below altitude 10° 03:21:16 10° 349° (N) 2,506 8.3 -34.2°
Sets 03:23:39 0° 348° (NNW) 3,446 9.2 -34.5°
